[[{"header":{"parameterUnit":"m.s-1","parameterCategory":1,"la1":30.2991,"la2":30.254,"lo1":-89.0895,"lo2":-89.0444,"dy":0.0017,"dx":0.0017,"nx":28,"ny":28,"refTime":"2025-05-16T03:00:00:Z","depth":0,"parameterNumber":2,"parameterNumberName":"U-component_of_WINDS"},"data":[0,0,0,0,0,0,0,0,0,0,0,0,0,0,0,0,0,0,0,0,0,0,0,0,0,0,0,0,0,0,0,0,0,0,0,0,0,0,0,0,0,0,0,0,0,0,0,0,0,0,0,0,0,0,0,0,0,0,0.4133,0.4134,0,0.4176,0.4177,0.4177,0.4223,0.4224,0.4225,0.4225,0.4268,0.4269,0.4269,0,0,0,0,0,0,0,0,0,0,0,0,0,0.4091,0.4091,0.4133,0.4134,0.4134,0.4176,0.4177,0.4177,0.4223,0.4224,0.4225,0.4226,0.4268,0.4269,0.4269,0,0,0,0,0,0,0,0,0,0,0,0,0,0.4119,0.4091,0.4133,0.4162,0.4165,0.4176,0.4177,0.4177,0.4223,0.4224,0.4225,0.4226,0.4268,0.4269,0.427,0.4255,0,0,0.4272,0.4272,0,0,0,0,0,0,0,0,0.4117,0.412,0.4158,0.416,0.4164,0.4195,0.4178,0.4203,0.4223,0.4201,0.4225,0.4226,0.4243,0.4246,0.4252,0.4257,0.4259,0.4272,0.4273,0.4273,0.4273,0,0,0,0,0,0,0,0.4115,0.4119,0.415,0.4158,0.4162,0.4173,0.4178,0.4183,0.4216,0.4203,0.4207,0.4211,0.4245,0.4251,0.4253,0.4259,0.4272,0.4273,0.4273,0.4274,0.4254,0.4253,0,0,0,0,0,0,0.4109,0.4117,0.4149,0.4152,0.4143,0.4173,0.4179,0.4184,0.4216,0.4222,0.421,0.4213,0.4249,0.4252,0.4255,0.424,0.4273,0.4274,0.4274,0.4255,0.4254,0.4252,0,0,0,0,0,0,0.4108,0.4111,0.4147,0.4135,0.4141,0.4173,0.4179,0.4185,0.4191,0.4222,0.4228,0.421,0.425,0.4254,0.4254,0.4242,0.4274,0.4275,0.4256,0.4254,0.4253,0.421,0,0,0,0,0,0,0.4106,0.4111,0.4106,0.4135,0.4141,0.4146,0.4178,0.4185,0.4192,0.4196,0.4223,0.4229,0.4251,0.4253,0.4255,0.4244,0.4275,0.4257,0.4255,0.4253,0.4212,0.4207,0.4202,0,0,0,0,0,0.4105,0.4092,0.4105,0.4109,0.4135,0.4145,0.4149,0.4176,0.4191,0.4186,0.4206,0.4228,0.4243,0.4253,0.4256,0.4244,0.4258,0.4256,0.4254,0.4215,0.4208,0.4202,0,0,0,0,0,0,0.406,0.4096,0.4111,0.4107,0.4123,0.4153,0.4148,0.4168,0.4179,0.4183,0.4215,0.422,0.4217,0.4231,0.4241,0.4231,0.4254,0.4252,0.4223,0.4217,0.4212,0.4209,0.4276,0,0,0,0,0,0.405,0.4055,0.4086,0.4079,0.4086,0.4115,0.4121,0.414,0.4157,0.4164,0.4184,0.42,0.4208,0.4213,0.4223,0.4214,0.4221,0.4208,0.4203,0.4198,0.4197,0.4193,0.4188,0.4245,0.4245,0.4245,0,0,0.4028,0.4049,0.405,0.4071,0.4085,0.409,0.4121,0.4124,0.4128,0.4165,0.4167,0.4181,0.4201,0.4197,0.4197,0.4209,0.4182,0.4195,0.4192,0.4193,0.4191,0.4185,0.418,0.4243,0.4244,0.4244,0,0,0.3992,0.4008,0.4005,0.4018,0.404,0.4059,0.4058,0.4085,0.4097,0.4099,0.4126,0.4131,0.4145,0.4158,0.4166,0.4134,0.4155,0.4136,0.411,0.4106,0.4102,0.4098,0.4087,0.4083,0.4134,0.4134,0.4134,0,0.3963,0.3972,0.4,0.4002,0.401,0.4043,0.404,0.4052,0.4075,0.408,0.4093,0.4111,0.4126,0.4126,0.4118,0.4123,0.4123,0.4134,0.41,0.4097,0.4094,0.4084,0.4079,0.4132,0.4132,0.4132,0.4132,0,0.3935,0.394,0.3935,0.3957,0.3964,0.3963,0.3991,0.3995,0.4013,0.4031,0.4033,0.4053,0.4067,0.4068,0.4086,0.407,0.4077,0.4094,0.4118,0.4085,0.4077,0.4073,0.4128,0.4129,0.413,0.413,0,0,0.3873,0.391,0.3908,0.3918,0.3944,0.3949,0.3949,0.3963,0.3966,0.398,0.3982,0.3992,0.4009,0.4018,0.4037,0.4034,0.4008,0.4052,0.4053,0.4044,0.3992,0.398,0.3975,0.4021,0.4021,0.402,0.3991,0,0.3842,0.3846,0.3871,0.3867,0.3872,0.3903,0.3904,0.3919,0.3936,0.3942,0.396,0.3968,0.3988,0.3994,0.3992,0.4011,0.3998,0.4014,0.4023,0.4023,0.4018,0.397,0.3957,0.3929,0.3988,0.3987,0.3987,0,0.3807,0.382,0.3816,0.3842,0.3845,0.3845,0.386,0.3866,0.3884,0.3896,0.3906,0.3928,0.393,0.395,0.3954,0.3964,0.3969,0.3978,0.3978,0.3981,0.4004,0.3972,0.392,0.3916,0.3981,0.3982,0.3982,0,0.3763,0.3779,0.3779,0.3787,0.3817,0.3816,0.3829,0.3848,0.3854,0.3867,0.3872,0.3884,0.3891,0.39,0.3924,0.3937,0.3924,0.3947,0.3935,0.3934,0.3932,0.3932,0.388,0.3933,0.3933,0.3933,0.3933,0,0.3726,0.3723,0.376,0.376,0.3758,0.3786,0.3783,0.3798,0.3814,0.3818,0.3845,0.3847,0.3879,0.3885,0.3903,0.3903,0.3906,0.3916,0.3921,0.3914,0.3913,0.3919,0.3922,0.3932,0.3932,0.3932,0.3933,0,0.3677,0.3702,0.3704,0.3732,0.3739,0.3736,0.376,0.3761,0.3779,0.3783,0.3785,0.3813,0.3821,0.3846,0.3861,0.3873,0.3868,0.3877,0.3862,0.3866,0.3852,0.3853,0.3804,0.3799,0.3853,0.3853,0.3852,0,0.3653,0.3651,0.3679,0.3684,0.3695,0.3702,0.3709,0.3736,0.3742,0.3763,0.3761,0.3772,0.3782,0.3794,0.3815,0.3827,0.3837,0.3818,0.3839,0.3832,0.3838,0.3838,0.3838,0.3814,0.3814,0.3813,0.3813,0,0.3607,0.3619,0.3629,0.3642,0.365,0.3662,0.3675,0.3677,0.3708,0.3713,0.3723,0.373,0.3745,0.3756,0.377,0.3782,0.3803,0.3806,0.3804,0.3797,0.3789,0.3794,0.3851,0.3807,0.3808,0.3808,0.3808,0.3809,0.357,0.357,0.359,0.36,0.3613,0.3624,0.3627,0.3645,0.3653,0.3668,0.3684,0.3691,0.3709,0.373,0.3741,0.3747,0.3758,0.3755,0.3754,0.3753,0.375,0.3787,0.375,0.375,0.375,0.375,0.375,0,0.3527,0.3541,0.3549,0.3567,0.3575,0.3593,0.3609,0.3613,0.362,0.3635,0.3644,0.3655,0.3665,0.3686,0.3698,0.3699,0.3708,0.3701,0.3702,0.3705,0.3739,0.3741,0.3693,0.3693,0.3693,0.3693,0.3693,0.3693,0.3505,0.3507,0.3521,0.3529,0.3543,0.3551,0.3558,0.3569,0.3581,0.3592,0.3601,0.3615,0.3632,0.3646,0.3656,0.3662,0.3665,0.3655,0.3664,0.3697,0.3702,0.3707,0.3708,0.3655,0.3655,0.3629,0.3629,0.3628]},{"header":{"parameterUnit":"m.s-1","parameterCategory":1,"la1":30.2991,"la2":30.254,"lo1":-89.0895,"lo2":-89.0444,"dy":0.0017,"dx":0.0017,"nx":28,"ny":28,"refTime":"2025-05-16T03:00:00:Z","depth":0,"parameterNumber":3,"parameterNumberName":"V-component_of_WINDS"},"data":[0,0,0,0,0,0,0,0,0,0,0,0,0,0,0,0,0,0,0,0,0,0,0,0,0,0,0,0,0,0,0,0,0,0,0,0,0,0,0,0,0,0,0,0,0,0,0,0,0,0,0,0,0,0,0,0,0,0,3.9884,3.9883,0,3.98,3.9799,3.9798,3.9798,3.9799,3.98,3.9801,3.9706,3.9702,3.9699,0,0,0,0,0,0,0,0,0,0,0,0,0,4.0037,4.0034,3.9884,3.9883,3.9882,3.98,3.9799,3.9798,3.9798,3.9799,3.9801,3.9802,3.9707,3.9703,3.9698,0,0,0,0,0,0,0,0,0,0,0,0,0,3.9963,4.0033,3.9884,3.9873,3.9871,3.98,3.9799,3.9797,3.9798,3.9799,3.9801,3.9803,3.9708,3.9703,3.9698,3.963,0,0,3.9681,3.9679,0,0,0,0,0,0,0,0,3.9967,3.9957,3.9875,3.9873,3.9871,3.9812,3.9817,3.9741,3.9797,3.9825,3.9801,3.9803,3.9739,3.9731,3.9711,3.9626,3.9622,3.9681,3.9677,3.9675,3.9674,0,0,0,0,0,0,0,3.9972,3.9961,3.985,3.9874,3.9871,3.9869,3.986,3.9803,3.9773,3.9823,3.9823,3.9813,3.9738,3.9716,3.9709,3.962,3.9681,3.9676,3.9673,3.9671,3.9476,3.9474,0,0,0,0,0,0,3.9981,3.9965,3.9853,3.9848,3.9925,3.9865,3.9855,3.9829,3.9774,3.9767,3.9812,3.9813,3.9725,3.9715,3.9706,3.9624,3.9675,3.967,3.9667,3.9478,3.9475,3.9473,0,0,0,0,0,0,3.9984,3.9971,3.9857,3.9907,3.9892,3.986,3.9831,3.9826,3.9805,3.9766,3.9759,3.9796,3.9726,3.9713,3.965,3.962,3.9668,3.9663,3.948,3.9477,3.9474,3.9459,0,0,0,0,0,0,3.9989,3.9972,3.9948,3.9906,3.9889,3.9805,3.9829,3.9823,3.9797,3.9798,3.9749,3.9743,3.9726,3.9658,3.9644,3.9614,3.9659,3.9482,3.9479,3.9475,3.9462,3.9456,3.9451,0,0,0,0,0,3.9994,3.9945,3.9947,3.9934,3.9859,3.9803,3.9793,3.9778,3.9794,3.9769,3.9744,3.9744,3.9626,3.9651,3.9636,3.9603,3.9484,3.948,3.9475,3.9464,3.9457,3.9451,0,0,0,0,0,0,3.9981,3.9939,3.9941,3.9878,3.9845,3.9803,3.9771,3.977,3.9729,3.9732,3.9712,3.9701,3.9638,3.9614,3.9643,3.9535,3.9557,3.9549,3.9553,3.9546,3.9541,3.9547,3.9654,0,0,0,0,0,3.9972,3.9933,3.9897,3.9844,3.9828,3.9802,3.9777,3.9769,3.9732,3.9717,3.9687,3.9649,3.9603,3.9573,3.9529,3.9459,3.9447,3.9428,3.9423,3.9418,3.9412,3.9373,3.9364,3.9459,3.9459,3.9459,0,0,3.995,3.9922,3.9898,3.9841,3.9814,3.9772,3.979,3.9744,3.9712,3.9709,3.9648,3.9625,3.9581,3.9514,3.9483,3.9492,3.9383,3.9413,3.941,3.9405,3.9367,3.9358,3.9351,3.9456,3.9456,3.9457,0,0,3.9889,3.9865,3.9819,3.9793,3.9753,3.9737,3.9726,3.9685,3.967,3.961,3.9607,3.9567,3.9488,3.9458,3.9431,3.936,3.9359,3.9346,3.9316,3.9279,3.9271,3.9264,3.9239,3.923,3.934,3.934,3.934,0,3.9867,3.9806,3.9794,3.9749,3.9724,3.9723,3.9675,3.9648,3.9595,3.9576,3.9588,3.9491,3.946,3.9387,3.937,3.9348,3.9334,3.9351,3.9274,3.9267,3.926,3.9236,3.9226,3.9338,3.9338,3.9339,3.9339,0,3.978,3.9737,3.9704,3.9657,3.9627,3.9581,3.956,3.9531,3.9525,3.9506,3.9444,3.9409,3.9358,3.9339,3.9331,3.9264,3.9271,3.9279,3.9299,3.925,3.9227,3.9217,3.9337,3.9337,3.9337,3.9338,0,0,3.9707,3.9657,3.9644,3.9623,3.958,3.9546,3.9498,3.9452,3.9427,3.939,3.9348,3.9283,3.929,3.926,3.9249,3.9216,3.9162,3.9227,3.9226,3.9216,3.9085,3.908,3.9069,3.9161,3.9159,3.9158,3.9089,0,3.9642,3.9563,3.9551,3.9479,3.9439,3.9438,3.9396,3.9364,3.9345,3.9306,3.9284,3.9239,3.9252,3.9234,3.9201,3.9176,3.9135,3.918,3.912,3.9118,3.9132,3.9057,3.9051,3.8988,3.9079,3.9078,3.9077,0,3.9556,3.9521,3.9446,3.9409,3.9392,3.9355,3.9312,3.9276,3.9238,3.9227,3.9195,3.9188,3.9136,3.916,3.9087,3.9119,3.9093,3.9077,3.9074,3.9067,3.9095,3.9048,3.8967,3.8958,3.9062,3.9063,3.9064,0,3.9511,3.9444,3.9391,3.9373,3.9329,3.9303,3.9283,3.9248,3.9221,3.9181,3.9163,3.9117,3.9092,3.9055,3.9035,3.9055,3.8964,3.8986,3.8952,3.8952,3.8932,3.8934,3.8846,3.8916,3.8916,3.8917,3.8917,0,3.9439,3.9393,3.9371,3.9338,3.9286,3.9273,3.9221,3.92,3.9169,3.9131,3.9125,3.9088,3.9065,3.9023,3.9007,3.895,3.8938,3.8926,3.8922,3.8926,3.8928,3.8909,3.8913,3.8914,3.8915,3.8915,3.8915,0,3.938,3.9364,3.9306,3.927,3.926,3.9223,3.9191,3.9158,3.914,3.9091,3.9079,3.9049,3.9001,3.8978,3.8917,3.8906,3.8841,3.8839,3.8855,3.8853,3.882,3.8824,3.8717,3.8702,3.8782,3.8781,3.8781,0,3.9336,3.9301,3.9263,3.9239,3.9219,3.9179,3.9153,3.9137,3.9109,3.9065,3.9036,3.8989,3.895,3.8872,3.8843,3.8796,3.8794,3.876,3.8787,3.8793,3.8794,3.8796,3.8792,3.8755,3.8754,3.8754,3.8753,0,3.9259,3.9253,3.9217,3.9178,3.9147,3.9115,3.9082,3.9062,3.9041,3.9009,3.8962,3.8932,3.8871,3.8823,3.8775,3.8751,3.8748,3.8745,3.8735,3.8739,3.8749,3.8743,3.8842,3.8747,3.8748,3.8748,3.8749,3.8749,3.9206,3.9175,3.9144,3.9104,3.9079,3.905,3.9017,3.8997,3.8958,3.891,3.8903,3.8852,3.8814,3.875,3.8724,3.8682,3.869,3.8675,3.8671,3.8667,3.8666,3.8756,3.8673,3.8673,3.8674,3.8674,3.8674,0,3.9128,3.9109,3.9073,3.903,3.8998,3.9002,3.8966,3.8938,3.8895,3.8862,3.8825,3.877,3.8724,3.8693,3.8646,3.8618,3.8616,3.8606,3.8608,3.8602,3.8662,3.8676,3.8609,3.8609,3.8609,3.8609,3.8609,3.8609,3.9085,3.9034,3.9024,3.896,3.894,3.8893,3.8873,3.8845,3.8819,3.876,3.8723,3.8704,3.8671,3.8622,3.8579,3.857,3.8553,3.8544,3.8535,3.8591,3.8598,3.8605,3.8618,3.854,3.854,3.8479,3.8479,3.8478]}]]